Temp
50 50 50 50 50 50 50 51 51 51 51 52 53 53 53 52 52 48 45 46 41 38 39 45 45 41 40 37 33 38 37 37 37 34 35 37 35 44 42 46 42 41 37 37 34 35 38 55 55 53 55 57 59 57
50 50 50 50 50 50 50 50 51 51 51 51 52 53 53 51 51 50 42 48 47 41 39 42 46 46 45 43 39 37 37 40 43 36 38 40 37 39 45 40 48 44 46 43 45 44 52 58 58 60 58 59 58 57
50 50 50 50 50 50 50 50 51 51 51 52 52 53 52 51 51 50 44 44 44 40 35 37 39 45 45 45 45 35 37 43 44 43 43 39 36 39 38 46 45 47 49 47 48 51 53 57 57 57 58 59 58 58
50 49 49 50 50 50 50 50 51 51 52 52 52 52 52 52 52 51 44 45 44 38 31 35 47 42 47 44 44 43 42 42 40 44 43 39 38 43 39 43 47 51 51 47 48 50 52 55 60 58 58 58 59 60
49 49 49 50 50 50 50 50 51 51 52 52 52 52 52 51 50 48 46 46 44 37 30 33 39 43 45 43 43 43 41 39 37 37 38 39 41 41 41 43 41 49 48 50 49 52 54 56 61 59 57 57 59 60
49 49 49 50 50 50 50 50 51 51 52 52 53 51 51 51 51 44 36 42 43 43 33 25 37 39 44 41 41 40 40 40 40 41 38 43 46 41 38 39 48 49 51 51 54 57 57 58 65 62 59 58 60 61
49 49 49 50 50 50 50 50 51 51 51 52 52 51 51 51 46 40 39 44 47 43 36 33 31 41 45 41 40 40 45 43 42 42 38 40 41 44 39 36 46 50 52 53 55 57 55 57 56 60 61 63 60 62
49 49 49 49 50 50 50 50 51 51 51 51 51 51 51 50 46 43 47 50 46 42 42 33 33 36 46 40 39 44 41 42 42 40 42 43 43 43 36 45 49 51 51 53 55 57 60 58 57 57 59 60 60 61
49 49 49 49 50 50 50 50 50 51 50 51 51 51 44 41 38 40 52 50 44 40 35 35 32 31 43 40 42 41 42 36 40 39 39 41 38 35 41 44 47 48 49 51 53 56 59 59 57 58 60 60 60 60
49 49 50 50 50 50 50 50 50 50 50 50 44 39 33 40 51 50 41 36 35 34 39 34 40 35 39 39 36 39 40 37 35 39 44 39 36 44 44 45 47 48 50 53 53 53 57 56 59 58 60 59 61 61
50 50 50 50 50 50 50 50 50 50 48 39 36 34 39 48 42 39 34 30 31 30 37 38 38 36 42 35 34 41 34 35 32 37 39 37 36 43 45 46 50 51 52 53 55 55 57 58 58 57 58 59 59 59
49 50 50 50 50 50 50 50 50 41 39 42 43 45 43 40 36 33 27 30 30 29 38 37 39 41 40 42 38 39 35 36 32 40 38 35 41 46 47 48 50 52 54 55 55 56 57 57 57 56 55 56 57 58
49 49 50 50 50 51 51 50 50 50 46 44 42 39 32 32 30 29 29 28 30 36 38 40 36 40 41 42 38 37 33 33 42 35 35 39 44 46 48 50 52 55 56 55 57 58 57 57 58 57 55 56 57 57
48 49 49 49 50 51 50 50 50 47 41 37 35 29 30 28 32 34 34 35 39 35 37 39 37 37 36 35 36 33 37 38 32 32 34 40 43 45 48 50 53 52 53 54 54 56 58 57 56 57 57 58 59 58
48 49 49 50 51 50 50 49 49 42 38 36 33 29 32 36 38 37 38 36 38 37 36 35 36 37 33 34 36 35 33 32 33 33 39 42 43 46 49 50 51 51 50 50 51 53 53 54 54 52 53 54 57 58
48 48 46 50 49 49 49 46 43 42 38 36 35 33 36 35 36 37 37 37 38 37 37 38 34 33 32 34 33 33 32 32 34 41 42 44 45 45 47 50 50 51 50 50 50 50 51 51 51 52 50 51 53 56
47 41 49 49 48 48 48 41 40 38 33 33 32 36 34 35 35 36 36 36 39 36 31 35 32 31 36 33 32 34 33 36 41 42 44 46 45 45 48 51 51 50 49 49 49 48 47 48 48 50 47 47 48 49
39 42 48 48 47 44 41 41 36 34 34 31 30 35 35 35 35 37 39 39 37 36 35 35 39 32 32 30 32 36 39 42 44 45 45 46 48 49 50 49 50 49 47 46 47 46 45 46 44 42 44 45 46 45
44 45 47 48 46 39 39 38 37 30 32 34 35 35 36 37 39 39 38 39 39 39 38 37 35 33 32 37 38 40 41 41 42 44 46 48 49 48 49 48 47 46 46 44 44 43 43 43 43 43 43 43 42 42
47 47 48 48 47 39 38 35 39 32 30 33 36 36 35 36 40 39 40 39 39 39 36 33 34 35 35 39 41 40 41 42 43 43 44 47 48 47 46 44 44 45 45 45 44 43 45 44 44 42 42 42 42 41
44 45 47 45 42 40 38 36 35 29 31 33 36 34 33 36 37 37 37 40 38 32 34 38 39 41 42 42 43 41 43 44 43 44 44 44 45 44 44 45 45 45 44 43 43 44 44 43 43 44 43 42 42 42
41 47 42 44 38 37 33 37 33 36 33 35 34 34 29 27 31 36 37 36 35 37 38 39 41 42 44 45 44 44 44 46 46 45 43 44 43 43 43 42 45 44 44 43 43 43 42 42 43 44 43 43 42 43
45 43 38 39 35 30 33 35 35 33 31 32 32 32 30 28 34 39 29 34 36 40 41 39 42 43 43 46 48 46 45 45 43 43 43 42 43 43 43 45 47 47 46 44 43 43 43 40 41 43 44 43 44 43
45 37 33 31 30 28 32 32 27 28 29 28 27 31 31 31 35 34 29 34 38 39 40 40 41 41 42 44 42 42 43 43 43 43 43 44 44 43 42 43 44 45 44 45 45 44 44 44 42 44 43 44 43 43
30 28 27 22 30 32 32 30 31 29 30 30 30 29 28 29 28 31 30 34 35 35 38 39 38 38 37 39 40 41 43 45 44 42 42 44 43 43 44 43 44 44 44 45 45 45 44 44 44 44 46 44 43 43
20 25 25 28 27 30 27 29 29 30 30 30 31 28 25 27 30 31 35 36 34 35 39 40 38 37 37 39 40 41 42 41 43 41 39 40 41 42 41 41 41 43 45 44 44 45 45 44 44 45 46 46 39 44
20 24 28 34 26 31 27 28 28 30 31 30 27 32 28 28 28 32 36 37 36 38 43 42 39 37 38 38 40 42 42 43 42 42 41 41 41 40 39 39 39 41 41 43 46 47 45 44 43 44 44 47 47 46
28 30 29 25 28 23 30 28 30 29 29 31 29 29 28 27 26 35 37 40 40 41 41 41 39 39 37 38 38 37 37 40 44 42 41 41 40 40 40 40 41 35 41 40 40 45 45 45 44 44 44 44 44 45
28 27 32 28 28 28 28 29 30 33 35 32 26 25 32 36 38 36 38 40 41 43 42 40 40 39 37 37 36 35 35 36 38 36 34 33 33 35 38 38 39 41 42 42 35 34 38 43 44 45 44 44 44 44
31 32 27 30 29 28 31 32 32 34 34 34 34 34 34 35 37 36 35 38 37 39 40 40 39 40 37 35 33 32 33 33 33 33 32 32 33 34 35 36 37 39 40 40 40 41 36 42 41 44 43 39 39 36
32 31 30 26 30 32 33 34 33 33 32 32 33 29 32 33 35 35 35 35 36 37 38 37 36 36 35 34 32 31 31 33 32 33 32 32 32 33 34 35 36 37 37 37 36 35 36 39 36 36 36 37 38 37
31 31 31 28 27 30 32 32 29 31 31 31 33 31 30 30 30 32 33 33 34 34 34 36 34 32 34 34 33 32 33 35 35 33 31 31 31 32 33 33 35 37 36 35 35 34 33 32 31 31 32 31 33 35
24 30 29 28 21 24 30 28 23 25 24 17 31 32 31 30 29 30 32 32 32 32 32 33 35 33 34 33 32 32 35 37 36 33 32 28 26 28 31 32 33 35 35 33 33 33 32 32 31 31 31 31 31 32
MSLP
1016.58 1015.78 1014.94 1014.16 1013.19 1012.11 1011.09 1010.07 1009.00 1007.84 1007.30 1006.79 1006.31 1006.22 1006.27 1006.39 1006.79 1007.30 1007.69 1007.66 1008.05 1007.69 1007.21 1006.71 1006.43 1006.02 1005.93 1006.07 1006.36 1006.53 1006.59 1006.26 1006.06 1006.00 1005.63 1004.81 1003.76 1002.86 1002.11 1001.25 1001.21 1001.84 1002.93 1003.54 1003.63 1002.55 1001.15 999.79 1000.22 999.62 999.73 999.17 999.62 1000.09
1016.35 1015.54 1014.90 1014.17 1013.29 1012.26 1011.25 1010.32 1009.36 1008.27 1007.33 1006.95 1006.65 1006.37 1006.37 1006.54 1006.87 1007.26 1007.66 1007.70 1007.82 1008.05 1007.66 1006.98 1006.28 1006.01 1005.98 1005.89 1006.26 1006.46 1006.58 1006.25 1005.85 1005.53 1005.13 1004.57 1003.89 1002.61 1001.47 1000.94 1000.19 1000.37 1000.20 1000.59 1001.05 999.83 998.97 998.62 998.12 997.98 998.15 998.96 999.44 999.89
1016.30 1015.47 1014.97 1014.21 1013.36 1012.46 1011.48 1010.56 1009.57 1008.65 1007.61 1006.67 1006.68 1006.74 1006.77 1006.86 1007.09 1007.29 1007.67 1007.94 1008.11 1008.09 1007.75 1007.39 1006.36 1005.78 1005.79 1005.88 1005.95 1006.56 1006.61 1006.36 1005.99 1005.98 1005.13 1004.46 1004.08 1003.29 1001.64 1000.25 1000.02 999.30 999.22 999.54 999.92 999.01 998.51 998.26 998.01 998.01 998.25 998.61 999.19 999.47
1016.42 1015.72 1015.03 1014.26 1013.43 1012.62 1011.69 1010.82 1009.88 1009.06 1008.27 1007.53 1007.23 1007.14 1007.08 1007.16 1007.38 1007.38 1007.71 1007.94 1008.06 1008.10 1007.86 1006.68 1005.98 1005.88 1005.43 1005.61 1005.79 1006.11 1006.43 1006.54 1006.43 1005.95 1005.29 1004.69 1004.45 1003.42 1002.35 1001.29 999.96 998.72 998.81 998.81 998.69 998.12 998.06 997.82 997.48 997.76 998.54 999.06 999.10 999.30
1016.49 1015.77 1015.10 1014.34 1013.49 1012.69 1011.90 1011.10 1010.30 1009.62 1008.95 1008.33 1007.83 1007.49 1007.25 1007.58 1007.72 1007.71 1007.88 1008.00 1007.95 1008.50 1008.25 1007.30 1006.40 1005.61 1005.36 1005.44 1005.64 1005.96 1006.34 1006.66 1006.69 1006.32 1005.49 1004.79 1004.31 1003.73 1002.74 1001.68 1000.14 998.51 998.09 998.14 997.25 997.26 997.29 997.31 997.18 997.69 998.35 998.88 998.96 999.14
1016.42 1015.76 1015.08 1014.43 1013.57 1012.73 1011.99 1011.35 1010.73 1010.08 1009.52 1009.04 1008.62 1008.26 1008.08 1008.09 1007.98 1008.16 1008.34 1008.29 1007.97 1007.98 1008.28 1007.93 1006.59 1005.88 1005.43 1005.40 1005.59 1005.97 1006.20 1006.52 1006.60 1005.95 1005.30 1004.54 1003.93 1003.84 1003.26 1001.98 999.58 998.84 998.07 997.87 996.49 996.10 996.15 996.27 995.89 996.89 997.74 998.45 998.48 998.57
1016.39 1015.70 1015.06 1014.44 1013.71 1012.81 1012.10 1011.52 1010.96 1010.37 1009.82 1009.42 1009.03 1008.74 1008.53 1008.33 1008.29 1008.44 1008.52 1008.21 1008.00 1008.13 1008.13 1007.54 1006.68 1005.54 1005.24 1005.42 1005.70 1005.90 1005.92 1005.94 1005.92 1005.31 1004.69 1004.04 1003.81 1003.44 1003.06 1001.92 999.42 998.73 998.51 997.53 996.96 995.62 996.40 996.23 996.15 996.44 996.94 997.37 997.87 998.55
1016.43 1015.71 1015.06 1014.42 1013.75 1012.98 1012.23 1011.59 1011.00 1010.42 1009.75 1009.22 1008.89 1008.65 1008.41 1008.23 1008.14 1008.13 1007.92 1007.57 1007.84 1008.05 1007.78 1007.35 1006.49 1005.83 1005.07 1004.98 1005.32 1005.09 1005.29 1005.40 1005.02 1004.28 1003.67 1003.31 1003.31 1002.88 1001.81 1000.01 999.66 999.24 998.66 997.21 996.39 995.17 994.45 995.10 996.09 996.60 996.86 997.50 997.87 998.44
1016.36 1015.73 1015.07 1014.38 1013.68 1013.03 1012.30 1011.61 1010.94 1010.19 1009.57 1008.97 1008.58 1008.43 1008.58 1008.60 1008.59 1008.25 1007.71 1007.58 1007.92 1008.49 1007.86 1007.26 1006.48 1005.46 1004.96 1004.79 1004.64 1004.96 1004.71 1004.62 1004.26 1003.76 1002.89 1002.81 1002.49 1001.51 1000.28 999.86 999.61 999.31 998.89 998.12 996.82 995.24 995.10 994.73 996.49 996.71 996.71 997.49 997.57 998.17
1016.15 1015.57 1014.95 1014.26 1013.60 1012.96 1012.28 1011.57 1010.90 1010.08 1009.35 1008.85 1008.79 1008.89 1008.82 1008.66 1008.15 1007.89 1007.84 1008.10 1008.20 1008.21 1007.90 1007.09 1006.17 1005.22 1005.10 1004.49 1004.65 1004.29 1003.91 1003.45 1003.24 1002.40 1001.87 1001.77 1001.68 1000.76 1000.35 999.86 999.32 999.20 998.80 997.98 997.08 995.72 995.67 995.35 996.58 996.44 996.52 997.19 997.43 997.61
1016.10 1015.32 1014.71 1014.06 1013.41 1012.82 1012.19 1011.56 1010.95 1010.19 1009.56 1009.85 1009.93 1009.74 1009.18 1008.39 1008.16 1008.11 1008.24 1008.39 1008.32 1008.07 1007.36 1006.52 1005.87 1004.97 1004.61 1004.48 1004.13 1003.38 1003.19 1002.95 1002.40 1001.70 1001.18 1000.78 1000.62 1000.14 999.94 999.73 999.29 999.10 998.57 997.12 996.03 995.55 995.70 995.58 996.21 996.45 997.11 997.51 997.81 998.07
1016.17 1015.27 1014.52 1013.84 1013.20 1012.63 1012.04 1011.41 1010.92 1010.70 1010.64 1010.44 1010.24 1009.89 1009.48 1008.94 1008.63 1008.67 1008.45 1008.36 1008.17 1007.67 1006.74 1005.90 1005.26 1004.65 1004.24 1003.69 1003.55 1003.09 1002.66 1002.16 1001.27 1001.00 1000.33 1000.34 1000.07 1000.18 1000.10 1000.41 999.98 999.05 997.28 996.51 996.89 995.97 996.02 996.43 996.61 996.97 997.47 997.78 998.17 998.43
1016.10 1015.14 1014.36 1013.61 1012.96 1012.37 1011.70 1011.06 1010.55 1010.21 1009.99 1009.97 1010.02 1010.02 1009.98 1009.80 1009.47 1009.01 1008.74 1008.57 1008.15 1007.35 1006.48 1005.87 1005.42 1004.93 1004.35 1004.01 1003.62 1003.03 1002.40 1001.04 1000.51 1000.37 1000.11 1000.22 1000.04 1000.02 998.77 998.10 997.72 997.85 997.95 997.57 997.16 996.97 997.35 997.48 997.63 997.68 998.33 998.84 998.97 999.15
1015.77 1014.79 1014.00 1013.28 1012.70 1012.12 1011.37 1010.72 1010.12 1009.93 1010.05 1010.47 1010.58 1010.66 1010.82 1010.43 1010.16 1009.66 1009.25 1008.85 1008.12 1007.46 1006.49 1006.08 1005.63 1005.11 1004.83 1004.40 1004.04 1003.43 1002.28 1001.37 1000.74 1000.25 1000.55 1000.71 1000.64 1000.42 999.29 998.73 998.52 998.11 997.77 997.81 997.71 997.76 998.09 998.24 998.84 999.00 999.19 999.42 999.59 999.90
1015.48 1014.40 1013.55 1012.87 1012.36 1011.85 1011.08 1010.44 1010.13 1010.18 1010.44 1011.07 1011.35 1011.72 1011.15 1010.83 1010.21 1009.59 1008.95 1008.42 1007.54 1006.80 1006.51 1005.98 1005.50 1005.16 1004.78 1004.44 1004.38 1003.81 1002.70 1002.17 1001.38 1001.67 1001.26 1001.00 1000.37 999.51 999.04 998.76 998.80 999.82 999.66 999.30 999.01 999.03 999.34 999.53 999.90 1000.31 1000.25 1000.21 1000.24 1000.33
1015.10 1014.01 1013.36 1012.84 1012.16 1011.50 1010.80 1010.46 1010.39 1010.52 1010.96 1011.55 1011.95 1011.95 1011.30 1010.85 1010.13 1009.41 1008.65 1008.08 1007.10 1006.77 1006.18 1006.03 1005.73 1005.55 1005.48 1005.35 1004.92 1004.43 1003.76 1003.02 1002.30 1001.89 1001.80 1001.21 1000.65 1000.32 999.91 999.91 1000.25 1000.52 1000.35 1000.38 1000.51 1000.49 1000.55 1000.46 1000.61 1001.02 1001.45 1001.17 1000.97 1001.02
1014.99 1014.38 1013.31 1012.76 1012.02 1011.36 1010.86 1010.85 1010.89 1011.30 1011.79 1012.14 1012.24 1011.76 1011.54 1011.15 1010.66 1009.39 1008.69 1007.80 1007.13 1006.99 1006.92 1006.66 1006.94 1006.69 1006.20 1005.61 1005.51 1005.13 1004.45 1004.13 1003.38 1002.81 1002.38 1002.17 1002.03 1001.63 1001.13 1001.27 1001.61 1001.53 1001.56 1001.62 1001.63 1001.62 1001.68 1001.62 1001.48 1001.40 1001.90 1002.64 1002.34 1002.03
1015.40 1014.17 1013.43 1012.72 1012.20 1011.73 1011.46 1011.49 1011.67 1011.99 1012.36 1012.52 1012.54 1011.71 1011.15 1010.68 1010.08 1009.20 1008.48 1007.71 1007.55 1007.34 1007.12 1007.44 1007.56 1007.38 1007.10 1006.61 1006.20 1005.73 1004.97 1004.45 1003.83 1003.68 1003.78 1003.50 1002.99 1002.51 1002.32 1002.36 1002.38 1002.36 1002.47 1002.54 1002.66 1002.85 1002.77 1002.68 1002.92 1003.30 1003.07 1003.03 1003.22 1002.85
1015.11 1014.29 1013.37 1012.71 1012.43 1012.63 1012.69 1012.41 1012.52 1012.92 1012.78 1012.54 1012.17 1011.65 1011.17 1010.39 1009.77 1009.22 1008.58 1007.82 1007.49 1007.30 1007.31 1007.54 1008.04 1008.13 1007.79 1007.10 1006.44 1005.98 1005.66 1005.15 1004.93 1004.81 1004.16 1003.64 1003.43 1003.42 1003.31 1003.31 1003.35 1003.30 1003.43 1003.59 1003.60 1003.80 1003.84 1003.89 1004.17 1004.21 1004.11 1003.86 1004.03 1004.11
1014.06 1013.58 1013.09 1012.67 1012.51 1012.80 1013.01 1013.06 1012.92 1013.29 1013.26 1012.77 1012.18 1011.75 1011.38 1010.79 1010.02 1009.41 1008.70 1008.25 1008.01 1007.77 1008.38 1008.61 1008.48 1008.24 1007.70 1007.01 1006.55 1006.26 1005.88 1005.79 1005.64 1005.40 1004.95 1004.39 1004.48 1004.35 1004.26 1004.22 1004.24 1004.31 1004.19 1004.22 1004.20 1004.38 1004.64 1004.78 1004.80 1004.86 1004.85 1004.91 1004.83 1004.85
1014.22 1013.45 1012.97 1012.80 1012.90 1013.26 1013.66 1013.71 1013.66 1013.79 1013.44 1013.10 1012.42 1012.21 1011.84 1011.05 1010.66 1010.41 1010.06 1009.34 1009.25 1009.54 1009.64 1009.17 1008.75 1008.04 1007.30 1006.86 1006.47 1006.27 1005.98 1005.82 1005.85 1005.69 1005.67 1005.52 1005.27 1005.26 1005.11 1005.03 1004.76 1004.62 1004.91 1005.01 1005.19 1005.45 1005.32 1005.58 1005.60 1005.46 1005.42 1005.54 1005.55 1005.57
1014.67 1013.96 1013.70 1013.27 1013.48 1013.62 1013.86 1013.80 1014.00 1013.71 1013.71 1013.19 1012.76 1012.55 1012.45 1012.13 1011.83 1011.44 1011.11 1010.83 1011.14 1011.08 1010.47 1009.92 1009.06 1008.25 1007.54 1007.08 1006.70 1006.31 1006.07 1005.85 1005.87 1005.86 1005.77 1005.57 1005.75 1005.70 1005.71 1005.61 1005.28 1005.39 1005.38 1005.72 1005.77 1005.93 1006.00 1005.82 1005.79 1005.89 1005.88 1005.93 1005.75 1005.80
1014.83 1014.62 1014.46 1014.38 1014.45 1014.49 1014.34 1013.90 1014.08 1013.89 1014.00 1013.57 1013.04 1012.99 1012.92 1012.61 1012.13 1011.60 1012.04 1012.27 1012.10 1011.57 1011.16 1010.49 1009.58 1008.71 1008.08 1007.31 1006.82 1006.64 1006.49 1006.32 1006.44 1006.37 1006.34 1006.50 1006.50 1006.26 1005.96 1006.02 1005.95 1005.94 1006.22 1006.39 1006.30 1006.44 1006.49 1006.41 1006.43 1006.45 1006.41 1006.48 1006.52 1006.59
1015.18 1015.52 1015.45 1015.59 1015.57 1015.47 1014.96 1014.82 1014.61 1014.60 1014.35 1014.30 1014.33 1013.91 1013.36 1012.97 1012.33 1012.31 1013.14 1013.03 1012.37 1011.66 1011.20 1010.77 1010.18 1009.33 1008.54 1007.90 1007.92 1007.68 1007.24 1007.15 1007.15 1007.41 1007.52 1007.36 1007.34 1007.29 1007.03 1006.90 1006.77 1006.64 1006.67 1006.50 1006.52 1006.62 1006.59 1006.72 1006.71 1006.73 1006.74 1006.80 1006.97 1007.06
1016.50 1016.85 1016.83 1016.59 1016.15 1016.07 1015.96 1015.69 1015.53 1015.45 1015.35 1015.12 1014.90 1014.33 1013.83 1013.57 1013.25 1013.43 1013.65 1013.25 1012.68 1012.18 1011.71 1011.41 1011.01 1010.46 1010.22 1009.36 1008.84 1008.45 1008.00 1007.85 1008.02 1008.28 1008.34 1008.07 1008.04 1007.91 1007.81 1007.68 1007.39 1007.28 1007.18 1007.00 1006.87 1006.81 1006.78 1006.73 1006.75 1006.88 1006.99 1007.10 1007.16 1007.25
1017.37 1017.44 1017.39 1017.02 1016.94 1016.86 1016.62 1016.45 1016.23 1016.10 1015.77 1015.61 1015.42 1015.02 1014.71 1014.45 1013.97 1014.11 1013.94 1013.34 1013.04 1012.57 1012.25 1011.94 1011.85 1011.25 1010.84 1010.72 1010.17 1009.33 1008.91 1008.54 1008.24 1008.61 1009.19 1008.89 1008.80 1008.81 1008.92 1008.84 1008.64 1008.23 1007.99 1007.87 1007.54 1007.30 1007.27 1007.19 1007.15 1007.24 1007.37 1007.45 1007.47 1007.42
1018.11 1017.74 1017.28 1016.92 1017.15 1016.90 1016.95 1016.64 1016.51 1016.35 1016.16 1016.14 1015.93 1015.47 1015.12 1014.74 1014.43 1014.00 1013.30 1012.93 1012.86 1012.54 1012.24 1011.99 1011.93 1011.72 1011.52 1011.23 1010.75 1010.39 1009.83 1009.06 1008.97 1009.53 1009.86 1009.70 1009.67 1009.79 1009.78 1009.72 1009.64 1009.49 1008.80 1008.14 1007.76 1007.59 1007.52 1007.47 1007.40 1007.45 1007.51 1007.39 1007.25 1007.26
1017.71 1017.49 1017.28 1017.13 1017.15 1017.14 1017.08 1016.96 1016.78 1016.54 1016.29 1015.93 1015.89 1015.63 1015.17 1014.72 1014.16 1013.43 1013.11 1012.69 1012.58 1012.40 1012.23 1011.98 1012.00 1011.89 1011.88 1011.94 1011.73 1011.28 1010.72 1010.24 1010.10 1010.12 1010.16 1010.31 1010.36 1010.46 1010.49 1010.36 1010.07 1009.54 1008.98 1008.76 1008.49 1008.08 1007.96 1007.83 1007.72 1007.62 1007.53 1007.46 1007.43 1007.34
1017.48 1017.34 1017.01 1017.18 1017.23 1017.17 1016.91 1016.61 1016.36 1015.93 1015.66 1015.78 1015.91 1015.33 1014.72 1013.88 1013.47 1013.36 1013.02 1012.76 1012.60 1012.33 1012.49 1012.14 1012.16 1012.24 1012.44 1012.52 1012.41 1012.24 1011.90 1011.57 1011.26 1011.48 1011.78 1011.96 1011.79 1011.37 1011.23 1010.93 1010.55 1010.04 1009.54 1009.06 1008.70 1008.65 1008.49 1008.28 1008.07 1007.94 1007.89 1007.90 1007.87 1007.87
1016.76 1016.54 1016.87 1017.00 1017.12 1016.80 1016.09 1015.74 1015.59 1015.33 1015.27 1015.16 1014.96 1014.60 1014.19 1013.72 1013.20 1012.98 1012.80 1012.65 1012.73 1012.59 1012.43 1011.99 1012.24 1012.48 1012.91 1013.00 1013.15 1013.24 1013.33 1013.27 1013.25 1013.31 1013.36 1013.39 1013.34 1012.98 1012.40 1011.83 1011.28 1010.76 1010.25 1009.81 1009.38 1008.87 1008.50 1008.37 1008.35 1008.33 1008.44 1008.58 1008.60 1008.64
1016.00 1016.21 1016.45 1016.57 1016.42 1015.77 1015.30 1015.03 1014.99 1015.01 1014.97 1014.77 1014.39 1014.36 1013.73 1013.34 1012.91 1012.81 1012.78 1012.59 1012.55 1012.49 1012.54 1013.01 1013.36 1013.48 1013.49 1013.57 1013.57 1013.72 1014.09 1014.32 1014.14 1014.09 1014.11 1014.06 1013.85 1013.44 1012.94 1012.39 1011.97 1011.58 1011.17 1010.82 1010.46 1010.16 1009.73 1009.38 1009.48 1009.51 1009.51 1009.54 1009.40 1009.36
1015.74 1015.73 1015.88 1016.13 1015.77 1015.16 1015.09 1015.17 1015.05 1014.97 1014.68 1014.44 1014.00 1013.44 1013.24 1013.22 1013.17 1012.86 1012.77 1012.70 1012.73 1012.64 1012.62 1012.99 1013.69 1014.05 1013.96 1014.09 1014.25 1014.40 1014.47 1014.54 1014.49 1014.50 1014.46 1014.35 1014.11 1013.77 1013.32 1012.86 1012.44 1012.07 1011.83 1011.57 1011.37 1011.17 1010.89 1010.70 1010.65 1010.60 1010.52 1010.41 1010.18 1009.97
1015.27 1015.06 1015.16 1015.48 1015.38 1015.20 1014.99 1015.12 1015.11 1014.81 1014.41 1014.20 1013.39 1012.79 1012.58 1012.75 1012.88 1012.99 1012.93 1012.86 1012.81 1013.02 1013.29 1013.65 1014.03 1014.25 1014.31 1014.43 1014.61 1014.73 1014.74 1014.90 1014.97 1014.88 1014.75 1014.59 1014.44 1014.21 1013.83 1013.43 1013.03 1012.66 1012.45 1012.34 1012.22 1012.05 1011.80 1011.60 1011.56 1011.49 1011.33 1011.16 1010.97 1010.75
Wind_Speed
24 23 23 25 26 27 27 25 25 21 15 17 10 5 2 9 14 4 1 1 2 1 3 4 3 1 1 2 3 2 3 2 0 5 5 5 4 10 6 7 10 9 8 6 2 3 8 6 5 13 9 3 6 8
24 23 20 22 25 25 26 24 25 24 22 9 10 5 3 8 10 5 1 1 2 1 3 3 4 4 2 2 3 1 1 1 2 3 3 3 3 2 11 14 3 11 8 9 10 7 4 14 12 13 7 7 6 8
25 22 21 22 23 24 25 25 24 22 23 16 1 4 5 10 9 3 2 2 2 2 4 2 6 3 1 5 4 3 2 1 1 1 2 1 4 2 3 14 5 3 3 5 4 6 6 12 3 4 4 5 5 4
21 20 21 22 22 23 25 24 23 20 21 17 5 2 4 5 5 3 2 2 1 1 1 4 1 4 2 3 6 5 4 2 0 2 2 1 2 0 3 4 7 7 8 7 2 2 4 4 8 6 6 3 6 6
20 20 21 21 21 22 22 22 22 17 18 21 12 11 7 10 7 4 3 2 1 2 2 5 7 4 5 4 7 6 5 2 1 2 3 3 2 2 2 2 5 4 7 8 9 9 8 8 15 8 11 8 8 8
18 19 20 21 21 21 20 19 20 18 17 17 17 10 8 7 3 2 3 3 2 1 1 4 4 4 3 3 6 6 4 3 2 2 3 3 2 2 1 3 8 5 7 6 6 14 8 4 14 14 10 10 9 8
20 18 19 20 21 21 19 18 18 19 18 13 11 10 9 6 2 2 1 3 4 1 1 4 5 3 2 3 2 2 3 3 3 3 4 4 4 5 4 6 10 15 17 18 10 10 3 5 7 13 11 12 9 7
18 18 18 19 19 20 18 18 19 20 19 16 9 7 8 7 3 2 2 5 3 2 1 3 4 4 3 3 2 4 3 3 3 3 2 3 4 4 7 12 13 14 17 13 12 7 8 10 8 7 5 7 9 6
17 18 17 17 18 18 18 18 19 21 20 14 9 4 3 3 2 3 7 4 2 1 3 2 2 3 1 2 3 3 2 3 3 4 4 4 3 6 7 3 4 9 9 15 8 6 10 16 10 9 9 6 7 6
17 17 17 17 17 18 17 17 19 21 18 10 4 4 3 2 10 7 3 3 3 2 2 3 3 3 1 1 1 2 3 3 3 5 3 4 4 4 6 9 9 12 16 8 7 11 11 12 9 8 8 6 7 7
22 18 17 17 17 17 17 17 17 18 8 5 4 2 4 10 3 2 3 2 2 3 1 3 4 4 1 2 3 2 2 3 3 3 3 3 2 1 9 15 13 12 12 5 5 6 4 8 8 8 7 5 5 6
22 21 18 16 16 17 18 18 17 4 1 4 4 4 3 3 2 2 2 3 0 3 3 3 4 2 3 3 2 2 2 2 4 2 3 2 3 2 6 12 8 7 4 9 3 5 6 7 9 10 7 7 6 6
23 21 21 19 17 18 21 21 18 11 4 1 1 2 4 4 4 3 4 4 4 4 3 5 4 3 3 2 2 3 3 3 2 1 2 3 3 5 10 6 6 3 2 3 6 8 7 9 8 10 9 6 7 7
24 23 22 20 17 19 23 20 16 4 3 3 4 6 4 4 4 3 4 5 4 4 7 6 3 2 2 3 1 4 3 3 4 2 4 4 6 4 8 7 3 8 8 8 8 8 9 9 8 8 8 7 6 6
25 26 22 12 19 21 21 18 7 2 3 4 4 5 3 3 4 5 6 4 5 4 3 3 2 0 2 2 3 4 5 3 3 3 2 6 7 6 8 8 10 7 6 8 6 9 9 8 9 8 7 6 6 6
26 20 4 15 24 22 20 7 3 2 3 3 3 3 3 3 6 4 3 5 3 4 2 0 2 5 4 2 3 4 6 5 4 3 3 7 12 10 10 9 9 6 7 8 8 8 8 9 7 6 6 7 6 5
22 4 10 23 25 20 10 3 3 4 3 4 3 2 3 4 5 6 2 4 3 4 3 3 5 3 4 3 4 5 3 1 3 6 8 10 9 8 9 10 7 6 7 7 7 8 7 7 7 9 8 5 6 5
4 7 20 23 17 5 4 4 3 3 4 2 3 5 3 3 4 5 4 3 4 3 3 3 2 5 4 6 4 5 4 4 5 6 5 6 8 6 5 7 8 8 8 8 7 6 6 8 9 5 6 6 3 5
13 15 20 18 4 2 3 5 4 3 3 3 4 4 4 5 4 5 5 4 2 1 2 3 5 3 3 2 4 4 3 3 2 2 4 5 8 6 6 7 6 7 7 6 6 5 5 7 4 4 4 4 4 3
16 14 9 6 2 3 4 4 2 2 3 4 3 5 4 4 5 4 4 5 3 3 6 4 2 3 2 4 2 3 2 0 2 1 3 6 6 7 6 5 4 3 4 5 5 6 4 4 4 4 4 4 4 4
9 5 9 3 3 4 2 2 3 2 3 3 3 4 4 4 4 5 5 5 5 3 4 3 4 4 5 4 3 2 1 1 2 1 2 1 4 4 4 4 4 4 4 4 5 4 6 4 3 3 4 4 3 3
4 9 3 4 3 4 2 1 2 3 1 3 4 3 3 3 4 4 4 6 3 3 3 4 6 5 5 6 6 5 4 3 4 3 4 4 4 5 4 4 4 4 5 4 4 4 3 3 3 4 4 4 4 4
7 4 3 4 4 5 5 3 3 4 2 5 5 4 4 4 2 2 4 2 2 3 5 4 8 5 5 4 4 5 6 5 4 4 4 4 3 4 5 6 4 4 5 4 3 3 3 3 4 3 3 4 4 4
3 3 4 2 2 4 4 5 2 4 4 5 4 5 5 3 4 4 3 3 4 4 7 11 7 5 5 6 5 4 5 4 3 5 5 5 4 5 4 4 4 4 3 2 3 3 3 2 2 3 3 4 3 3
4 6 5 6 2 4 4 6 5 4 3 3 5 4 5 4 3 3 1 4 4 4 6 6 6 5 4 4 2 4 6 4 4 4 5 3 2 3 4 4 5 5 5 4 4 2 2 1 1 2 2 2 3 2
2 5 3 1 3 3 2 3 3 3 3 4 4 4 4 3 4 3 1 3 3 3 7 7 5 5 4 3 5 5 5 4 2 5 4 5 5 3 3 4 4 5 7 4 3 2 1 1 2 3 2 2 3 2
2 3 2 1 2 1 2 2 1 2 3 3 3 4 3 3 1 3 3 2 2 3 4 4 3 2 2 4 4 5 6 5 6 6 3 5 7 6 5 4 5 4 7 6 5 5 4 3 1 1 1 1 2 3
4 2 1 3 1 1 1 1 0 1 3 3 2 2 3 4 4 3 3 2 2 4 3 2 3 3 4 5 5 6 4 5 3 3 2 3 5 7 8 6 5 8 5 5 5 5 4 3 2 1 2 2 1 2
3 2 2 2 2 1 3 4 3 3 2 2 2 3 4 3 2 2 3 2 3 6 6 1 2 3 4 4 6 7 8 8 7 8 7 5 6 6 10 8 8 7 7 7 6 4 4 3 1 1 1 2 2 3
3 4 3 2 3 3 4 5 4 4 3 4 3 3 3 3 3 1 3 2 3 3 2 3 3 2 2 2 4 8 8 7 7 6 5 5 5 6 7 7 8 8 7 8 7 7 6 3 2 3 3 3 3 3
3 3 2 2 4 5 5 3 2 1 2 4 4 5 6 4 2 1 1 2 3 3 5 5 5 4 3 4 3 3 5 6 6 8 5 3 4 5 6 6 6 6 6 7 8 8 7 6 5 4 5 5 6 4
4 6 5 4 5 4 1 3 3 3 4 3 7 4 3 1 4 3 2 1 1 2 3 6 4 2 4 4 5 5 6 5 6 6 7 4 5 6 6 6 5 6 8 8 8 9 10 10 8 9 8 8 7 8
1 2 2 0 3 3 3 2 3 4 3 3 7 5 5 5 6 2 2 2 2 4 5 5 5 5 6 6 5 3 4 5 6 6 6 5 4 5 6 6 5 7 8 7 7 8 10 12 10 11 11 11 10 9
Wind_Direction
337 338 341 343 342 344 351 351 353 353 348 0 358 326 254 188 180 146 85 238 148 255 231 257 276 216 100 90 137 217 54 303 74 176 176 223 217 210 262 214 172 159 147 185 112 166 240 167 101 156 201 216 195 186
338 340 347 343 343 346 350 350 351 352 358 322 345 2 350 153 164 116 111 39 25 272 269 306 279 260 255 174 152 111 197 219 226 175 200 183 291 288 200 236 230 192 182 184 186 202 224 181 170 209 161 162 193 179
345 354 350 345 345 348 350 351 348 353 354 5 114 42 66 127 172 60 104 80 29 281 308 321 227 301 165 206 163 136 269 303 165 279 284 181 225 6 269 213 246 234 151 145 126 211 197 192 213 126 150 150 137 155
350 351 349 348 347 347 349 350 350 357 8 19 40 347 25 128 150 117 111 176 224 69 331 286 357 294 277 187 185 160 146 47 12 295 318 212 234 322 271 302 249 198 146 171 222 331 47 300 216 157 149 180 140 142
345 347 347 348 347 347 348 351 357 6 10 18 32 44 69 113 61 52 38 14 55 96 287 285 309 260 271 211 184 138 126 100 5 304 228 213 250 299 280 301 257 208 175 180 217 174 160 202 212 174 163 180 173 158
339 343 346 347 346 344 350 353 357 0 9 20 24 42 55 47 28 71 18 319 308 80 54 316 276 278 340 136 145 160 144 150 212 242 240 202 213 134 302 269 263 287 308 311 223 177 180 197 214 169 167 172 185 175
343 344 345 347 346 344 355 354 352 353 349 350 5 12 359 350 35 82 237 258 11 38 270 288 313 281 160 140 146 142 158 208 211 226 221 199 201 184 196 231 271 323 319 308 277 122 92 171 193 178 179 183 152 186
339 344 347 345 344 346 353 350 345 341 336 330 313 324 331 356 36 11 282 313 170 277 262 292 274 305 175 166 206 173 188 192 221 248 212 200 152 209 236 234 247 299 312 284 224 256 179 121 120 148 124 140 150 174
332 336 339 339 340 342 344 342 341 337 339 331 322 353 26 37 2 258 290 52 53 148 301 269 307 298 212 256 147 201 209 183 219 227 214 121 240 228 234 260 287 298 295 299 265 140 136 122 145 150 131 156 151 171
335 329 331 335 336 336 337 338 339 334 338 340 25 34 338 266 305 314 4 17 9 310 221 247 261 264 248 192 216 256 202 210 211 217 180 194 225 235 302 315 291 280 280 277 215 119 128 108 152 140 144 161 168 168
341 332 325 327 330 330 331 333 337 337 10 21 11 324 272 308 0 46 330 39 291 303 284 280 255 281 271 214 227 235 213 190 233 196 242 176 260 266 345 311 282 259 235 204 130 76 59 113 129 120 120 127 130 116
337 339 327 321 324 325 326 328 337 9 231 267 292 282 286 337 3 343 279 310 293 269 236 252 309 280 284 217 268 235 260 241 252 218 194 181 56 116 180 249 260 239 50 51 69 73 56 75 110 104 94 92 85 92
332 332 329 317 315 318 329 326 327 315 342 309 237 310 28 329 3 343 351 334 331 312 285 329 323 311 294 20 306 312 271 252 265 48 66 59 360 360 281 320 332 67 116 76 55 70 95 85 70 86 88 89 103 87
324 324 324 317 311 325 329 333 335 6 66 45 12 6 26 349 2 317 322 300 280 263 293 314 253 273 316 349 290 310 306 305 351 355 58 5 327 254 220 247 21 9 16 53 50 63 83 78 65 60 73 70 78 81
322 321 319 299 328 334 331 332 348 39 70 49 41 7 341 300 272 286 280 282 260 258 308 307 275 211 305 12 12 310 325 28 346 57 357 338 351 20 90 72 68 52 35 43 30 59 65 82 85 65 43 47 59 81
323 321 293 321 330 333 331 346 10 19 46 65 62 343 279 299 318 296 268 288 284 301 284 311 346 27 344 353 308 357 340 350 1 12 344 4 21 24 53 67 59 59 46 52 42 45 51 48 54 89 70 39 29 18
322 250 308 323 325 328 344 30 19 43 80 34 320 265 235 253 258 272 283 268 311 357 2 17 21 344 297 352 6 354 358 324 329 18 14 17 12 4 36 49 34 44 55 53 53 39 47 36 33 44 51 48 21 13
256 286 313 316 325 333 344 27 56 51 8 307 346 296 273 238 272 285 292 295 352 2 30 91 128 358 8 340 344 335 318 343 30 33 17 352 352 3 53 76 54 39 39 36 43 51 53 54 51 31 18 357 38 35
282 296 299 309 318 62 19 339 62 31 264 278 271 284 288 279 251 269 284 302 263 251 77 37 62 298 300 276 284 321 341 355 46 345 329 341 16 19 46 46 38 38 46 40 47 53 48 47 59 39 17 13 33 18
307 295 300 327 2 38 9 336 76 66 310 276 305 327 294 286 303 309 327 359 17 23 40 14 325 287 278 277 269 279 298 63 71 17 7 352 22 11 24 40 32 19 51 56 58 51 44 37 30 23 37 38 45 16
332 315 340 28 36 54 120 342 335 193 298 322 307 341 300 341 360 358 352 330 36 27 359 340 306 286 274 267 275 269 304 73 64 122 153 356 342 17 17 9 17 40 54 43 60 41 50 49 12 24 44 38 46 53
276 338 340 347 37 352 46 262 186 293 346 277 332 358 355 4 335 351 311 32 24 312 331 312 315 319 340 8 337 353 338 70 83 74 31 20 27 8 12 0 22 22 37 25 27 57 51 31 44 43 46 30 33 42
318 359 354 15 14 31 270 23 21 359 5 310 347 3 345 339 267 321 58 342 295 304 309 297 310 305 293 312 26 19 22 52 50 54 51 46 36 17 21 24 13 31 24 13 45 33 36 51 66 76 74 56 50 46
340 27 17 15 47 297 347 344 353 5 345 10 0 331 333 302 329 52 54 323 280 306 348 350 346 336 321 23 20 345 345 14 44 45 20 17 19 15 13 16 27 23 357 329 40 34 40 57 79 76 72 83 69 69
43 320 65 335 336 12 355 343 340 17 335 344 350 320 338 357 49 63 79 294 319 324 336 345 344 360 333 314 325 348 357 28 71 74 359 34 41 9 18 17 21 21 355 8 353 2 351 19 65 112 120 113 137 132
71 291 84 277 297 50 321 342 341 339 323 335 349 296 358 358 37 41 335 283 291 308 334 339 330 327 337 341 322 349 340 332 74 82 19 15 31 63 56 45 13 343 4 346 328 7 308 318 327 328 337 294 276 226
52 301 281 240 141 269 349 348 323 12 5 2 308 331 346 1 294 253 278 241 251 279 312 314 289 262 340 329 329 338 332 19 67 94 93 59 52 39 37 39 15 319 317 334 354 14 44 44 52 132 238 314 316 254
215 180 165 276 2 95 158 154 16 203 253 244 14 317 287 213 245 256 230 279 306 309 311 33 25 44 48 30 15 353 344 357 73 92 66 58 61 45 19 0 338 320 341 15 359 12 30 59 85 108 144 168 260 317
233 240 144 316 338 256 217 186 220 236 211 125 180 252 259 258 262 275 286 231 249 82 293 293 48 72 65 52 44 31 29 21 50 61 50 21 352 350 353 350 346 347 352 351 352 8 325 303 307 28 2 8 11 24
250 167 126 191 185 234 245 184 210 227 215 206 222 291 296 275 250 237 262 255 280 275 317 32 41 52 59 62 70 52 34 36 42 48 40 24 347 314 324 337 344 347 350 357 354 346 351 14 27 14 16 8 357 327
160 139 162 170 221 234 227 225 257 229 231 237 226 204 253 255 259 247 246 239 183 131 95 68 41 21 44 43 56 84 66 34 27 32 23 344 324 326 336 338 342 345 357 6 11 12 3 9 10 360 2 357 342 330
181 195 187 216 254 268 329 206 232 235 251 249 272 245 282 219 238 233 290 337 204 140 126 128 151 111 93 92 79 73 78 69 48 37 26 16 4 352 349 348 349 15 23 28 26 21 21 24 21 17 11 11 6 2
301 192 190 248 339 293 258 150 284 263 267 260 266 248 215 191 226 213 337 12 164 143 123 117 120 117 99 88 84 77 67 71 58 44 37 28 19 8 17 11 10 29 38 32 28 28 29 28 25 18 15 11 8 7